Change the Weather History Date:

Friday, March 22, 2013

  Actual Average Record
Temperature  
Mean Temperature 80 °F -  
Max Temperature 84 °F 83 °F - ()
Min Temperature 77 °F 73 °F - ()
Cooling Degree Days 16    
Growing Degree Days 30 (Base 50)    
Moisture  
Dew Point 73 °F    
Average Humidity 78    
Maximum Humidity 89    
Minimum Humidity 66    
Precipitation  
Precipitation 0.00 in 0.08 in - ()
Sea Level Pressure  
Sea Level Pressure 30.00 in    
Wind  
Wind Speed 7 mph ()    
Max Wind Speed 10 mph    
Max Gust Speed -    
Visibility 8.8 miles    
Events      
T = Trace of Precipitation, MM = Missing Value Source: Averaged Metar Reports

Daily Weather History Graph

Daily Weather History Graph

Search for Another Location

Airport or City:

Trip Planner

Search our weather history database for the weather conditions in past years. The results will help you decide how hot, cold, wet, or windy it might be!

Date:

Astronomy

Mar. 22, 2013 Rise Set
Actual Time 6:14 AM AST 6:23 PM AST
Civil Twilight 5:53 AM AST 6:45 PM AST
Nautical Twilight 5:27 AM AST 7:10 PM AST
Astronomical Twilight 5:02 AM AST 7:36 PM AST
Moon 2:20 PM AST (3/22) 2:36 AM AST (3/22)
Length of Visible Light 12h 52m
Length of Day
12h 09m
Waxing Gibbous, 77% of the Moon is Illuminated
Mar 22
Waxing Gibbous
Mar 27
Full
Apr 3
Last Quarter
Apr 10
New
Apr 18
First Quarter

Hourly Weather History & Observations

Time (AST) Temp. Heat Index Dew Point Humidity Pressure Visibility Wind Dir Wind Speed Gust Speed Precip Events Conditions
12:00 AM 78.8 °F - 75.2 °F 89% 29.98 in 6.2 mi SE 6.9 mph - N/A   Scattered Clouds
1:00 AM 78.8 °F - 73.4 °F 83% 29.95 in 6.2 mi ESE 6.9 mph - N/A   Scattered Clouds
2:00 AM 78.8 °F - 73.4 °F 83% 29.95 in 6.2 mi SE 9.2 mph - N/A   Scattered Clouds
3:00 AM 78.8 °F - 73.4 °F 83% 29.92 in 6.2 mi SE 9.2 mph - N/A   Partly Cloudy
4:00 AM 78.8 °F - 73.4 °F 83% 29.92 in 6.2 mi SE 8.1 mph - N/A   Partly Cloudy
5:00 AM 78 °F - 73 °F 80% 29.96 in 31 mi SE 8.1 mph - -   Scattered Clouds
5:00 AM 78.8 °F - 73.4 °F 83% 29.95 in 6.2 mi SE 8.1 mph - N/A   Partly Cloudy
6:00 AM 78.8 °F - 73.4 °F 83% 29.98 in 6.2 mi ESE 6.9 mph - N/A   Partly Cloudy
7:00 AM 78.8 °F - 73.4 °F 83% 30.01 in 6.2 mi ESE 6.9 mph - N/A   Partly Cloudy
8:00 AM 81 °F - 73 °F 71% 30.03 in 19 mi SE 8.1 mph - -   Partly Cloudy
8:00 AM 80.6 °F 85.4 °F 73.4 °F 79% 30.01 in 6.2 mi SE 8.1 mph - N/A   Scattered Clouds
9:00 AM 82.4 °F 88.2 °F 73.4 °F 74% 30.04 in 6.2 mi SE 9.2 mph - N/A   Scattered Clouds
10:00 AM 82.4 °F 88.2 °F 73.4 °F 74% 30.04 in 6.2 mi SE 8.1 mph - N/A   Partly Cloudy
11:00 AM 83 °F - 74 °F 66% 30.05 in 19 mi SSE 10.4 mph - -   Partly Cloudy
11:00 AM 82.4 °F 88.2 °F 73.4 °F 74% 30.04 in 6.2 mi SSE 10.4 mph - N/A   Scattered Clouds
12:00 PM 82.4 °F 88.2 °F 73.4 °F 74% 30.04 in 6.2 mi SE 9.2 mph - N/A   Scattered Clouds
1:00 PM 82.4 °F 88.2 °F 73.4 °F 74% 30.01 in 6.2 mi SSE 10.4 mph - N/A   Scattered Clouds
2:00 PM 83 °F - 74 °F 67% 30.00 in 19 mi SSE 8.1 mph - -   Scattered Clouds
2:00 PM 82.4 °F 88.2 °F 73.4 °F 74% 29.98 in 6.2 mi SE 8.1 mph - N/A   Partly Cloudy
3:00 PM 82.4 °F 88.2 °F 73.4 °F 74% 29.98 in 6.2 mi SE 9.2 mph - N/A   Partly Cloudy
4:00 PM 82.4 °F 88.2 °F 73.4 °F 74% 29.98 in 6.2 mi SE 8.1 mph - N/A   Partly Cloudy
5:00 PM 82 °F - 74 °F 71% 29.99 in 19 mi SSE 9.2 mph - -   Scattered Clouds
5:00 PM 82.4 °F 88.2 °F 73.4 °F 74% 29.98 in 6.2 mi SE 8.1 mph - N/A   Partly Cloudy
6:00 PM 80.6 °F 85.4 °F 73.4 °F 79% 29.98 in 6.2 mi ESE 6.9 mph - N/A   Partly Cloudy
7:00 PM 80.6 °F 85.4 °F 73.4 °F 79% 30.01 in 6.2 mi ESE 5.8 mph - N/A   Partly Cloudy
8:00 PM 80 °F - 73 °F 73% 30.04 in 19 mi East 5.8 mph - -   Scattered Clouds
8:00 PM 78.8 °F - 73.4 °F 83% 30.04 in 6.2 mi East 5.8 mph - N/A   Partly Cloudy
9:00 PM 78.8 °F - 73.4 °F 83% 30.04 in 6.2 mi East 5.8 mph - N/A   Partly Cloudy
10:00 PM 78.8 °F - 73.4 °F 83% 30.06 in 6.2 mi East 8.1 mph - N/A   Partly Cloudy
11:00 PM 79 °F - 73 °F 76% 30.06 in 19 mi East 6.9 mph - -   Partly Cloudy
11:00 PM 78.8 °F - 73.4 °F 83% 30.04 in 6.2 mi East 6.9 mph - N/A   Scattered Clouds